Time,TemperatureF,DewpointF,PressureIn,WindDirection,WindDirectionDegrees,WindSpeedMPH,WindSpeedGustMPH,Humidity,HourlyPrecipIn,Conditions,Clouds,dailyrainin,SoftwareType,DateUTC
2013-01-21 00:03:00,14.0,-3.0,-100.00,SSE,165,14.0,21.0,45,0.00,,,-99.99,,2013-01-21 07:03:00,
2013-01-21 00:12:00,13.0,-4.0,-100.00,SSE,160,11.0,21.0,45,0.00,,,-99.99,,2013-01-21 07:12:00,
2013-01-21 00:22:00,13.0,-4.0,-100.00,SSE,150,7.0,11.0,46,0.00,,,-99.99,,2013-01-21 07:22:00,
2013-01-21 00:33:00,16.0,-2.0,-100.00,NNW,335,3.0,12.0,44,0.00,,,-99.99,,2013-01-21 07:33:00,
2013-01-21 00:42:00,15.0,-3.0,-100.00,SSE,160,11.0,14.0,44,0.00,,,-99.99,,2013-01-21 07:42:00,
2013-01-21 00:53:00,16.0,-2.0,-100.00,SE,130,4.0,11.0,43,0.00,,,-99.99,,2013-01-21 07:53:00,
2013-01-21 01:03:00,16.0,-3.0,-100.00,South,175,5.0,16.0,43,0.00,,,-99.99,,2013-01-21 08:03:00,
2013-01-21 01:13:00,14.0,-4.0,-100.00,SE,140,13.0,17.0,44,0.00,,,-99.99,,2013-01-21 08:13:00,
2013-01-21 01:22:00,12.0,-5.0,-100.00,South,180,10.0,14.0,46,0.00,,,-99.99,,2013-01-21 08:22:00,
2013-01-21 01:32:00,11.0,-5.0,-100.00,SSE,150,11.0,14.0,47,0.00,,,-99.99,,2013-01-21 08:32:00,
2013-01-21 01:42:00,11.0,-5.0,-100.00,SSE,165,14.0,16.0,48,0.00,,,-99.99,,2013-01-21 08:42:00,
2013-01-21 01:53:00,12.0,-4.0,-100.00,SSE,165,14.0,19.0,48,0.00,,,-99.99,,2013-01-21 08:53:00,
2013-01-21 02:02:00,11.0,-4.0,-100.00,South,170,12.0,17.0,49,0.00,,,-99.99,,2013-01-21 09:02:00,
2013-01-21 02:12:00,12.0,-3.0,-100.00,South,180,14.0,19.0,48,0.00,,,-99.99,,2013-01-21 09:12:00,
2013-01-21 02:22:00,12.0,-3.0,-100.00,SSE,165,14.0,21.0,48,0.00,,,-99.99,,2013-01-21 09:22:00,
2013-01-21 02:33:00,12.0,-3.0,-100.00,South,180,14.0,17.0,48,0.00,,,-99.99,,2013-01-21 09:33:00,
2013-01-21 02:42:00,13.0,-3.0,-100.00,South,180,11.0,15.0,48,0.00,,,-99.99,,2013-01-21 09:42:00,
2013-01-21 02:52:00,12.0,-3.0,-100.00,SSW,210,7.0,14.0,48,0.00,,,-99.99,,2013-01-21 09:52:00,
2013-01-21 03:02:00,11.0,-4.0,-100.00,SSE,160,12.0,16.0,48,0.00,,,-99.99,,2013-01-21 10:02:00,
2013-01-21 03:12:00,13.0,-3.0,-100.00,South,185,9.0,15.0,48,0.00,,,-99.99,,2013-01-21 10:12:00,
2013-01-21 03:22:00,12.0,-3.0,-100.00,South,175,12.0,18.0,49,0.00,,,-99.99,,2013-01-21 10:22:00,
2013-01-21 03:32:00,13.0,-3.0,-100.00,South,180,9.0,16.0,48,0.00,,,-99.99,,2013-01-21 10:32:00,
2013-01-21 03:43:00,13.0,-3.0,-100.00,South,170,11.0,13.0,47,0.00,,,-99.99,,2013-01-21 10:43:00,
2013-01-21 03:52:00,13.0,-3.0,-100.00,SSE,165,10.0,12.0,47,0.00,,,-99.99,,2013-01-21 10:52:00,
2013-01-21 04:02:00,12.0,-4.0,-100.00,South,180,11.0,12.0,47,0.00,,,-99.99,,2013-01-21 11:02:00,
2013-01-21 04:13:00,13.0,-4.0,-100.00,South,185,12.0,14.0,47,0.00,,,-99.99,,2013-01-21 11:13:00,
2013-01-21 04:23:00,11.0,-5.0,-100.00,South,185,11.0,14.0,47,0.00,,,-99.99,,2013-01-21 11:23:00,
2013-01-21 04:33:00,12.0,-3.0,-100.00,SSE,160,12.0,16.0,48,0.00,,,-99.99,,2013-01-21 11:33:00,
2013-01-21 04:42:00,11.0,-4.0,-100.00,South,175,12.0,16.0,48,0.00,,,-99.99,,2013-01-21 11:42:00,
2013-01-21 04:53:00,10.0,-5.0,-100.00,South,170,15.0,16.0,49,0.00,,,-99.99,,2013-01-21 11:53:00,
2013-01-21 05:02:00,9.0,-5.0,-100.00,South,170,15.0,17.0,51,0.00,,,-99.99,,2013-01-21 12:02:00,
2013-01-21 05:12:00,11.0,-4.0,-100.00,South,175,15.0,17.0,50,0.00,,,-99.99,,2013-01-21 12:12:00,
2013-01-21 05:22:00,11.0,-4.0,-100.00,South,180,16.0,17.0,50,0.00,,,-99.99,,2013-01-21 12:22:00,
2013-01-21 05:33:00,12.0,-3.0,-100.00,South,175,14.0,17.0,50,0.00,,,-99.99,,2013-01-21 12:33:00,
2013-01-21 05:42:00,12.0,-3.0,-100.00,South,175,15.0,17.0,50,0.00,,,-99.99,,2013-01-21 12:42:00,
2013-01-21 05:52:00,10.0,-4.0,-100.00,South,180,10.0,16.0,50,0.00,,,-99.99,,2013-01-21 12:52:00,
2013-01-21 06:02:00,11.0,-4.0,-100.00,South,175,11.0,14.0,50,0.00,,,-99.99,,2013-01-21 13:02:00,
2013-01-21 06:13:00,11.0,-4.0,-100.00,South,175,12.0,14.0,50,0.00,,,-99.99,,2013-01-21 13:13:00,
2013-01-21 06:23:00,11.0,-4.0,-100.00,South,170,12.0,15.0,50,0.00,,,-99.99,,2013-01-21 13:23:00,
2013-01-21 06:33:00,11.0,-4.0,-100.00,SSE,165,13.0,16.0,50,0.00,,,-99.99,,2013-01-21 13:33:00,
2013-01-21 06:43:00,11.0,-4.0,-100.00,SSE,160,11.0,13.0,50,0.00,,,-99.99,,2013-01-21 13:43:00,
2013-01-21 06:54:00,10.0,-4.0,-100.00,SSE,160,11.0,13.0,51,0.00,,,-99.99,,2013-01-21 13:54:00,
2013-01-21 07:03:00,10.0,-4.0,-100.00,South,185,7.0,16.0,50,0.00,,,-99.99,,2013-01-21 14:03:00,
2013-01-21 07:12:00,10.0,-4.0,-100.00,South,185,7.0,12.0,50,0.00,,,-99.99,,2013-01-21 14:12:00,
2013-01-21 07:23:00,11.0,-4.0,-100.00,South,175,8.0,10.0,50,0.00,,,-99.99,,2013-01-21 14:23:00,
2013-01-21 07:32:00,10.0,-4.0,-100.00,South,170,12.0,15.0,50,0.00,,,-99.99,,2013-01-21 14:32:00,
2013-01-21 07:43:00,10.0,-5.0,-100.00,SSE,165,11.0,12.0,51,0.00,,,-99.99,,2013-01-21 14:43:00,
2013-01-21 07:53:00,11.0,-4.0,-100.00,South,175,10.0,12.0,51,0.00,,,-99.99,,2013-01-21 14:53:00,
2013-01-21 08:03:00,11.0,-4.0,-100.00,South,170,10.0,12.0,50,0.00,,,-99.99,,2013-01-21 15:03:00,
2013-01-21 08:13:00,12.0,-3.0,-100.00,South,170,12.0,14.0,49,0.00,,,-99.99,,2013-01-21 15:13:00,
2013-01-21 08:23:00,12.0,-4.0,-100.00,SSE,165,11.0,14.0,49,0.00,,,-99.99,,2013-01-21 15:23:00,
2013-01-21 08:33:00,12.0,-3.0,-100.00,South,170,9.0,14.0,49,0.00,,,-99.99,,2013-01-21 15:33:00,
2013-01-21 08:43:00,13.0,-3.0,-100.00,South,170,9.0,12.0,48,0.00,,,-99.99,,2013-01-21 15:43:00,
2013-01-21 08:53:00,13.0,-2.0,-100.00,South,175,11.0,13.0,48,0.00,,,-99.99,,2013-01-21 15:53:00,
2013-01-21 09:03:00,15.0,-1.0,-100.00,South,185,9.0,12.0,47,0.00,,,-99.99,,2013-01-21 16:03:00,
2013-01-21 09:12:00,16.0,-1.0,-100.00,South,170,11.0,14.0,46,0.00,,,-99.99,,2013-01-21 16:12:00,
2013-01-21 09:23:00,16.0,-1.0,-100.00,SSE,165,12.0,15.0,46,0.00,,,-99.99,,2013-01-21 16:23:00,
2013-01-21 09:33:00,17.0,0.0,-100.00,South,175,12.0,15.0,46,0.00,,,-99.99,,2013-01-21 16:33:00,
2013-01-21 09:43:00,17.0,0.0,-100.00,SSE,160,11.0,14.0,45,0.00,,,-99.99,,2013-01-21 16:43:00,
2013-01-21 09:53:00,18.0,0.0,-100.00,SE,135,6.0,12.0,44,0.00,,,-99.99,,2013-01-21 16:53:00,
2013-01-21 10:02:00,19.0,0.0,-100.00,SSE,155,6.0,12.0,43,0.00,,,-99.99,,2013-01-21 17:02:00,
2013-01-21 10:12:00,19.0,1.0,-100.00,SSE,150,6.0,11.0,43,0.00,,,-99.99,,2013-01-21 17:12:00,
2013-01-21 10:23:00,19.0,1.0,-100.00,South,180,9.0,13.0,42,0.00,,,-99.99,,2013-01-21 17:23:00,
2013-01-21 10:33:00,20.0,1.0,-100.00,South,170,10.0,13.0,42,0.00,,,-99.99,,2013-01-21 17:33:00,
2013-01-21 10:43:00,21.0,1.0,-100.00,South,190,4.0,15.0,41,0.00,,,-99.99,,2013-01-21 17:43:00,
2013-01-21 10:52:00,21.0,2.0,-100.00,South,180,4.0,12.0,41,0.00,,,-99.99,,2013-01-21 17:52:00,
2013-01-21 11:03:00,20.0,1.0,-100.00,SSE,165,9.0,14.0,41,0.00,,,-99.99,,2013-01-21 18:03:00,
2013-01-21 11:12:00,21.0,1.0,-100.00,SSE,165,10.0,14.0,41,0.00,,,-99.99,,2013-01-21 18:12:00,
2013-01-21 11:22:00,22.0,1.0,-100.00,SSE,165,8.0,14.0,40,0.00,,,-99.99,,2013-01-21 18:22:00,
2013-01-21 11:33:00,21.0,1.0,-100.00,SE,140,6.0,16.0,40,0.00,,,-99.99,,2013-01-21 18:33:00,
2013-01-21 11:42:00,22.0,2.0,-100.00,South,175,6.0,16.0,40,0.00,,,-99.99,,2013-01-21 18:42:00,
2013-01-21 11:52:00,23.0,2.0,-100.00,SSW,210,3.0,13.0,39,0.00,,,-99.99,,2013-01-21 18:52:00,
2013-01-21 12:03:00,24.0,2.0,-100.00,SSW,210,6.0,13.0,39,0.00,,,-99.99,,2013-01-21 19:03:00,
2013-01-21 12:12:00,22.0,2.0,-100.00,SSE,155,9.0,14.0,39,0.00,,,-99.99,,2013-01-21 19:12:00,
2013-01-21 12:22:00,22.0,1.0,-100.00,SSE,165,7.0,16.0,39,0.00,,,-99.99,,2013-01-21 19:22:00,
2013-01-21 12:33:00,24.0,2.0,-100.00,SSE,165,6.0,16.0,39,0.00,,,-99.99,,2013-01-21 19:33:00,
2013-01-21 12:42:00,23.0,2.0,-100.00,South,170,10.0,16.0,39,0.00,,,-99.99,,2013-01-21 19:42:00,
2013-01-21 12:53:00,24.0,3.0,-100.00,South,180,9.0,16.0,39,0.00,,,-99.99,,2013-01-21 19:53:00,
2013-01-21 13:03:00,24.0,3.0,-100.00,South,180,9.0,19.0,39,0.00,,,-99.99,,2013-01-21 20:03:00,
2013-01-21 13:12:00,24.0,3.0,-100.00,SSE,165,11.0,21.0,38,0.00,,,-99.99,,2013-01-21 20:12:00,
2013-01-21 13:23:00,25.0,3.0,-100.00,SSW,205,9.0,19.0,38,0.00,,,-99.99,,2013-01-21 20:23:00,
2013-01-21 13:33:00,24.0,3.0,-100.00,SSW,195,11.0,17.0,38,0.00,,,-99.99,,2013-01-21 20:33:00,
2013-01-21 13:43:00,24.0,3.0,-100.00,South,175,13.0,19.0,39,0.00,,,-99.99,,2013-01-21 20:43:00,
2013-01-21 13:53:00,25.0,3.0,-100.00,SSE,165,11.0,16.0,38,0.00,,,-99.99,,2013-01-21 20:53:00,
2013-01-21 14:03:00,25.0,3.0,-100.00,South,190,9.0,16.0,38,0.00,,,-99.99,,2013-01-21 21:03:00,
2013-01-21 14:12:00,25.0,3.0,-100.00,South,170,13.0,18.0,38,0.00,,,-99.99,,2013-01-21 21:12:00,
2013-01-21 14:22:00,25.0,3.0,-100.00,South,175,14.0,21.0,38,0.00,,,-99.99,,2013-01-21 21:22:00,
2013-01-21 14:33:00,26.0,4.0,-100.00,SSW,195,9.0,21.0,38,0.00,,,-99.99,,2013-01-21 21:33:00,
2013-01-21 14:43:00,26.0,4.0,-100.00,South,185,9.0,17.0,38,0.00,,,-99.99,,2013-01-21 21:43:00,
2013-01-21 14:53:00,26.0,4.0,-100.00,South,175,7.0,15.0,38,0.00,,,-99.99,,2013-01-21 21:53:00,
2013-01-21 15:03:00,26.0,3.0,-100.00,SSW,195,8.0,14.0,37,0.00,,,-99.99,,2013-01-21 22:03:00,
2013-01-21 15:12:00,26.0,3.0,-100.00,SSE,160,7.0,14.0,37,0.00,,,-99.99,,2013-01-21 22:12:00,
2013-01-21 15:23:00,25.0,3.0,-100.00,South,180,7.0,14.0,37,0.00,,,-99.99,,2013-01-21 22:23:00,
2013-01-21 15:33:00,24.0,2.0,-100.00,SSE,165,13.0,16.0,38,0.00,,,-99.99,,2013-01-21 22:33:00,
2013-01-21 15:43:00,23.0,2.0,-100.00,SW,215,6.0,11.0,38,0.00,,,-99.99,,2013-01-21 22:43:00,
2013-01-21 15:52:00,23.0,1.0,-100.00,SW,215,4.0,9.0,38,0.00,,,-99.99,,2013-01-21 22:52:00,
2013-01-21 16:03:00,22.0,1.0,-100.00,South,175,7.0,12.0,38,0.00,,,-99.99,,2013-01-21 23:03:00,
2013-01-21 16:12:00,22.0,1.0,-100.00,South,185,5.0,13.0,38,0.00,,,-99.99,,2013-01-21 23:12:00,
2013-01-21 16:22:00,22.0,1.0,-100.00,SE,145,7.0,10.0,38,0.00,,,-99.99,,2013-01-21 23:22:00,
2013-01-21 16:33:00,22.0,0.0,-100.00,ESE,120,4.0,12.0,38,0.00,,,-99.99,,2013-01-21 23:33:00,
2013-01-21 16:42:00,22.0,0.0,-100.00,SE,130,3.0,9.0,38,0.00,,,-99.99,,2013-01-21 23:42:00,
2013-01-21 16:53:00,22.0,0.0,-100.00,SE,140,6.0,11.0,38,0.00,,,-99.99,,2013-01-21 23:53:00,
2013-01-21 17:02:00,21.0,0.0,-100.00,SSE,150,4.0,10.0,38,0.00,,,-99.99,,2013-01-22 00:02:00,
2013-01-21 17:12:00,21.0,0.0,-100.00,SSE,150,4.0,7.0,38,0.00,,,-99.99,,2013-01-22 00:12:00,
2013-01-21 17:22:00,21.0,0.0,-100.00,South,185,6.0,8.0,38,0.00,,,-99.99,,2013-01-22 00:22:00,
2013-01-21 17:33:00,20.0,-1.0,-100.00,South,175,6.0,9.0,39,0.00,,,-99.99,,2013-01-22 00:33:00,
2013-01-21 17:42:00,19.0,-1.0,-100.00,South,180,6.0,9.0,40,0.00,,,-99.99,,2013-01-22 00:42:00,
2013-01-21 17:53:00,18.0,-1.0,-100.00,SSE,165,6.0,7.0,41,0.00,,,-99.99,,2013-01-22 00:53:00,
2013-01-21 18:02:00,18.0,-1.0,-100.00,South,185,5.0,7.0,41,0.00,,,-99.99,,2013-01-22 01:02:00,
2013-01-21 18:12:00,18.0,-1.0,-100.00,South,175,8.0,9.0,42,0.00,,,-99.99,,2013-01-22 01:12:00,
2013-01-21 18:23:00,18.0,-1.0,-100.00,South,170,8.0,10.0,42,0.00,,,-99.99,,2013-01-22 01:23:00,
2013-01-21 18:32:00,17.0,-1.0,-100.00,South,190,7.0,11.0,43,0.00,,,-99.99,,2013-01-22 01:32:00,
2013-01-21 18:42:00,18.0,-1.0,-100.00,South,180,9.0,9.0,43,0.00,,,-99.99,,2013-01-22 01:42:00,
2013-01-21 18:52:00,16.0,-1.0,-100.00,South,180,7.0,10.0,44,0.00,,,-99.99,,2013-01-22 01:52:00,
2013-01-21 19:02:00,17.0,-1.0,-100.00,SSW,195,6.0,9.0,44,0.00,,,-99.99,,2013-01-22 02:02:00,
2013-01-21 19:12:00,17.0,-1.0,-100.00,South,180,6.0,8.0,44,0.00,,,-99.99,,2013-01-22 02:12:00,
2013-01-21 19:22:00,16.0,-1.0,-100.00,South,185,7.0,9.0,44,0.00,,,-99.99,,2013-01-22 02:22:00,
2013-01-21 19:32:00,16.0,-1.0,-100.00,South,185,9.0,11.0,45,0.00,,,-99.99,,2013-01-22 02:32:00,
2013-01-21 19:43:00,16.0,-1.0,-100.00,South,175,9.0,10.0,45,0.00,,,-99.99,,2013-01-22 02:43:00,
2013-01-21 19:53:00,17.0,-1.0,-100.00,South,170,9.0,12.0,44,0.00,,,-99.99,,2013-01-22 02:53:00,
2013-01-21 20:02:00,18.0,0.0,-100.00,South,180,6.0,13.0,44,0.00,,,-99.99,,2013-01-22 03:02:00,
2013-01-21 20:12:00,17.0,-1.0,-100.00,SSE,165,7.0,14.0,44,0.00,,,-99.99,,2013-01-22 03:12:00,
2013-01-21 20:22:00,16.0,-1.0,-100.00,South,185,9.0,10.0,44,0.00,,,-99.99,,2013-01-22 03:22:00,
2013-01-21 20:32:00,17.0,-1.0,-100.00,SSE,165,7.0,12.0,44,0.00,,,-99.99,,2013-01-22 03:32:00,
2013-01-21 20:42:00,15.0,-2.0,-100.00,South,170,9.0,12.0,45,0.00,,,-99.99,,2013-01-22 03:42:00,
2013-01-21 20:52:00,16.0,-2.0,-100.00,South,185,9.0,12.0,45,0.00,,,-99.99,,2013-01-22 03:52:00,
2013-01-21 21:02:00,17.0,-1.0,-100.00,South,175,11.0,13.0,45,0.00,,,-99.99,,2013-01-22 04:02:00,
2013-01-21 21:12:00,16.0,-1.0,-100.00,South,190,9.0,12.0,44,0.00,,,-99.99,,2013-01-22 04:12:00,
2013-01-21 21:22:00,17.0,-1.0,-100.00,South,180,8.0,11.0,44,0.00,,,-99.99,,2013-01-22 04:22:00,
2013-01-21 21:32:00,17.0,-1.0,-100.00,South,180,10.0,11.0,44,0.00,,,-99.99,,2013-01-22 04:32:00,
2013-01-21 21:42:00,17.0,-1.0,-100.00,South,180,9.0,12.0,45,0.00,,,-99.99,,2013-01-22 04:42:00,
2013-01-21 21:52:00,16.0,-2.0,-100.00,South,175,9.0,10.0,44,0.00,,,-99.99,,2013-01-22 04:52:00,
2013-01-21 22:04:00,16.0,-2.0,-100.00,South,175,7.0,11.0,45,0.00,,,-99.99,,2013-01-22 05:04:00,
2013-01-21 22:12:00,15.0,-2.0,-100.00,South,180,7.0,9.0,46,0.00,,,-99.99,,2013-01-22 05:12:00,
2013-01-21 22:22:00,16.0,-2.0,-100.00,SSE,165,6.0,13.0,45,0.00,,,-99.99,,2013-01-22 05:22:00,
2013-01-21 22:42:00,16.0,-2.0,-100.00,SSE,160,8.0,9.0,44,0.00,,,-99.99,,2013-01-22 05:42:00,
2013-01-21 22:52:00,16.0,-2.0,-100.00,SSE,165,7.0,11.0,44,0.00,,,-99.99,,2013-01-22 05:52:00,
2013-01-21 23:02:00,16.0,-2.0,-100.00,South,170,10.0,11.0,44,0.00,,,-99.99,,2013-01-22 06:02:00,
2013-01-21 23:12:00,16.0,-2.0,-100.00,SSE,165,9.0,12.0,44,0.00,,,-99.99,,2013-01-22 06:12:00,
2013-01-21 23:22:00,15.0,-3.0,-100.00,South,175,9.0,11.0,44,0.00,,,-99.99,,2013-01-22 06:22:00,
2013-01-21 23:32:00,17.0,-1.0,-100.00,South,185,10.0,11.0,43,0.00,,,-99.99,,2013-01-22 06:32:00,
2013-01-21 23:42:00,16.0,-2.0,-100.00,South,175,10.0,13.0,43,0.00,,,-99.99,,2013-01-22 06:42:00,
2013-01-21 23:52:00,16.0,-3.0,-100.00,South,170,11.0,14.0,43,0.00,,,-99.99,,2013-01-22 06:52:00,